Location: Unspecified
(40.7945°N, 0.0000°E)
Time: 08:44:05
(UTC+00:00)

ITAMSAT 1 - Visible Passes

Search period start: 18 July 2019 00:00
Search period end: 28 July 2019 00:00
Orbit: 785 x 796 km, 98.9° (Epoch: 17 July)

Date Brightness Start Highest point End Pass type
(mag) Time Alt. Az. Time Alt. Az. Time Alt. Az.
19 Jul 10.3 03:57:40 10° NE 04:00:49 16° E 04:03:57 10° SE visible
22 Jul 10.2 04:08:18 10° NE 04:12:07 20° E 04:15:54 10° SE visible
26 Jul 10.5 03:51:15 10° ENE 03:53:40 13° E 03:56:04 10° ESE visible
